Curtin, Australia

8:17 AM AWST on September 22, 2017 (GMT +0800)
Curtin

Weather History for YCIN - June, 2014

Change the Weather History Date:

Saturday, June 7, 2014

  Actual Average Record
Temperature  
Mean Temperature 77 °F -  
Max Temperature 88 °F - - ()
Min Temperature 66 °F - - ()
Cooling Degree Days 12    
Growing Degree Days 27 (Base 50)    
Moisture  
Dew Point 48 °F    
Average Humidity 35    
Maximum Humidity 52    
Minimum Humidity 16    
Precipitation  
Precipitation 0.00 in - - ()
Sea Level Pressure  
Sea Level Pressure 29.93 in    
Wind  
Wind Speed 11 mph ()    
Max Wind Speed 17 mph    
Max Gust Speed -    
T = Trace of Precipitation, MM = Missing Value Source: Averaged Metar Reports

Daily Weather History Graph

Daily Weather History Graph

Search for Another Location

Airport or City:

Trip Planner

Search our weather history database for the weather conditions in past years. The results will help you decide how hot, cold, wet, or windy it might be!

Date:

Astronomy

Jun. 07, 2014 Rise Set
Actual Time 6:10 AM AWST 5:16 PM AWST
Civil Twilight 5:46 AM AWST 5:40 PM AWST
Nautical Twilight 5:19 AM AWST 6:07 PM AWST
Astronomical Twilight 4:52 AM AWST 6:34 PM AWST
Moon 12:41 PM AWST (6/7) 12:22 AM AWST (6/7)
Length of Visible Light 11h 53m
Length of Day
11h 06m
Waxing Gibbous, 63% of the Moon is Illuminated
Jun 7
Waxing Gibbous
Jun 13
Full
Jun 20
Last Quarter
Jun 27
New
Jul 5
First Quarter

Hourly Weather History & Observations

Time (AWST) Temp. Dew Point Humidity Pressure Visibility Wind Dir Wind Speed Gust Speed Precip Events Conditions
12:00 AM 75 °F 47 °F 26% 29.95 in - SE 13.8 mph - -  
12:00 AM 75.2 °F 48.2 °F 38% 29.95 in - SE 13.8 mph - N/A   Unknown
1:00 AM 73.4 °F 46.4 °F 38% 29.95 in - SE 13.8 mph - N/A   Unknown
2:00 AM 71.6 °F 48.2 °F 43% 29.95 in - SE 11.5 mph - N/A   Unknown
3:00 AM 69 °F 47 °F 35% 29.94 in - SE 9.2 mph - -  
3:00 AM 69.8 °F 48.2 °F 46% 29.92 in - SE 9.2 mph - N/A   Unknown
4:00 AM 68.0 °F 48.2 °F 49% 29.92 in - SE 10.4 mph - N/A   Unknown
5:00 AM 68.0 °F 48.2 °F 49% 29.95 in - SE 10.4 mph - N/A   Unknown
6:00 AM 67 °F 48 °F 39% 29.95 in - ESE 9.2 mph - -  
6:00 AM 66.2 °F 48.2 °F 52% 29.95 in - ESE 9.2 mph - N/A   Unknown
7:00 AM 68.0 °F 48.2 °F 49% 29.98 in - SE 11.5 mph - N/A   Unknown
8:00 AM 73.4 °F 50.0 °F 44% 29.98 in - SE 12.7 mph - N/A   Unknown
9:00 AM 77 °F 49 °F 26% 30.00 in - ESE 13.8 mph - -  
9:00 AM 77.0 °F 48.2 °F 36% 30.01 in - ESE 13.8 mph - N/A   Unknown
10:00 AM 80.6 °F 48.2 °F 32% 29.98 in - East 17.3 mph - N/A   Unknown
11:00 AM 84.2 °F 48.2 °F 29% 29.98 in - East 15.0 mph - N/A   Unknown
12:00 PM 85 °F 49 °F 19% 29.93 in - ESE 13.8 mph - -  
12:00 PM 86.0 °F 48.2 °F 27% 29.92 in - ESE 13.8 mph - N/A   Unknown
1:00 PM 86.0 °F 48.2 °F 27% 29.89 in - ESE 16.1 mph - N/A   Unknown
2:00 PM 87.8 °F 48.2 °F 25% 29.86 in - ESE 12.7 mph - N/A   Unknown
3:00 PM 88 °F 48 °F 16% 29.87 in - SE 16.1 mph - -  
3:00 PM 87.8 °F 48.2 °F 25% 29.86 in - SE 16.1 mph - N/A   Unknown
4:00 PM 86.0 °F 46.4 °F 25% 29.86 in - ESE 11.5 mph - N/A   Unknown
5:00 PM 84.2 °F 46.4 °F 27% 29.89 in - SE 10.4 mph - N/A   Unknown
6:00 PM 78 °F 47 °F 22% 29.90 in - SE 6.9 mph - -  
6:00 PM 78.8 °F 46.4 °F 32% 29.89 in - SE 6.9 mph - N/A   Unknown
7:00 PM 75.2 °F 46.4 °F 36% 29.92 in - SE 6.9 mph - N/A   Unknown
8:00 PM 73.4 °F 48.2 °F 41% 29.92 in - SE 8.1 mph - N/A   Unknown
9:00 PM 73 °F 48 °F 31% 29.94 in - SE 9.2 mph - -  
9:00 PM 73.4 °F 48.2 °F 41% 29.95 in - SE 9.2 mph - N/A   Unknown
10:00 PM 71.6 °F 48.2 °F 43% 29.95 in - SE 9.2 mph - N/A   Unknown
11:00 PM 71.6 °F 46.4 °F 41% 29.95 in - SE 11.5 mph - N/A   Unknown